Current Version              Previous Version:    01  02  03  04  05  06  07  08  09  10  11  12  13  14  15  16  17  18  19  20  21  22  23  24  25  26  27  28  29  30  
   31  32  33  34  35  36  37  38  39  40  41  42  43  44  45  46  47  48  49  50  51  52  53  54  55  56  57  58  59  60  

[Printable]
123
ASUS44 KLUB 021110
RWRTX
WEST TEXAS WEATHER ROUNDUP
NATIONAL WEATHER SERVICE LUBBOCK TX
600 AM CDT TUE SEP 02 2014

NOTE: "FAIR" INDICATES FEW OR NO CLOUDS BELOW 12,000 FEET WITH NO
SIGNIFICANT WEATHER AND/OR OBSTRUCTIONS TO VISIBILITY.

TXZ004-006>008-010-012-014-016-OKZ002-021200-
TEXAS PANHANDLE/OKLAHOMA PANHANDLE

CITY           SKY/WX    TMP DP  RH WIND       PRES   REMARKS
AMARILLO       CLEAR     71  59  65 NW6       29.95R
BORGER         CLOUDY    70  66  87 N8        29.94R
CANADIAN       MOCLDY    69  68  96 NE9       29.90R
DALHART        CLOUDY    68  64  87 N16       30.02R FOG
DUMAS          CLOUDY    66  65  94 N9        29.98R FOG
GUYMON         CLOUDY    69  67  93 N10       29.96R
HEREFORD       CLEAR     70  57  62 SW8       29.96R
PAMPA          DRZL/FOG  65  64  94 NE8       29.93R VSB 1/4
PERRYTON       CLOUDY    68  67  96 NE13      29.95R
$$

TXZ026-029-035-045-048-021200-
SOUTHERN PANHANDLE/SOUTH PLAINS/ROLLING PLAINS

CITY           SKY/WX    TMP DP  RH WIND       PRES   REMARKS
CHILDRESS      CLEAR     79  62  56 S12       29.85S
SEMINOLE       CLEAR     75  57  53 S6        29.96R
LUBBOCK        CLEAR     75  60  59 S10       29.95R
PLAINVIEW      CLEAR     70  61  72 S7        29.94S
SNYDER         CLEAR     77  65  65 S12       29.94S
$$

TXZ052-054-060>062-072-078-127-140-154-169-021200-
PERMIAN BASIN/CONCHO VALLEY/BIG COUNTRY/EDWARDS PLATEAU

CITY           SKY/WX    TMP DP  RH WIND       PRES   REMARKS
ABILENE        CLEAR     79  68  69 S17G25    29.91R
BIG SPRING     CLEAR     79  64  60 SE13      29.95F
BRADY          CLEAR     73  70  88 SE7       29.94S
BROWNWOOD      CLEAR     75  68  78 S8        29.92S
JUNCTION       CLEAR     75  69  81 S8        29.95S
MIDLAND        CLEAR     79  61  53 S20       29.93R
ODESSA         CLEAR     79  58  48 S12       29.94R
SAN ANGELO     CLEAR     77  69  76 S12G21    29.92R
SONORA         CLEAR     75  68  78 S9        29.99S
SWEETWATER     CLEAR     77  66  69 S14       29.96R
WINK           CLEAR     80  59  48 SE15      29.89R
$$

TXZ055-058-074-075-080-082-021200-
FAR WEST/SOUTHWEST MOUNTAINS/TRANS PECOS

CITY           SKY/WX    TMP DP  RH WIND       PRES   REMARKS
ALPINE         CLEAR     71  58  65 SW8       30.10R
DRYDEN           N/A     81  67  62 E8        29.92R
EL PASO        PTCLDY    77  40  26 S9        29.97R
FORT STOCKTON  CLEAR     77  57  50 S15       29.93S
GUADALUPE PASS CLEAR     73  40  30 S8        30.10S
MARFA          CLEAR     61  54  77 N6        30.10S
PECOS          CLEAR     73  57  57 CALM      29.88S
PRESIDIO       FAIR      83  59  44 NE6       29.93R
$$

TXZ014-016-019-021>030-083-021200
TEXAS TECH WEST TEXAS MESONET/TEXAS PANHANDLE/NORTHERN SOUTH PLAINS

CITY           SKY/WX    TMP DP  RH WIND       PRES   REMARKS
ABERNATHY 5ENE   N/A     68  59  72 S7        29.96S
AMARILLO 9NNE    N/A     65  64  97 N5        29.94R
AMARILLO 7SSE    N/A     73  58  59 SW10      29.94R
AMHERST 1NE      N/A     66  58  74 S7        29.96S
BOOTLEG 11WNW    N/A     63  44  51 SW9       30.01S
CANADIAN 6E      N/A     67  67  98 N15       29.89R
CAPROCK CYN SP   N/A     80  60  50 SW28      29.86F
CHILDRESS 2NNE   N/A     79  62  55 S14       29.83S
CLARENDON 2WSW   N/A     79  60  51 SW17      29.87F
CLAUDE 12SW      N/A     76  61  59 S5        29.93S
DIMMITT 2NE      N/A     68  56  65 S13       29.96S
FLOYDADA 2NNE    N/A     74  59  59 S12       29.94S
FRIONA 2NE       N/A     68  52  56 S9        29.99R
GOODLETT 3W      N/A     79  60  52 S9        29.83R
HART 3N          N/A     69  60  71 S9        29.96S
HEREFORD 2NW     N/A     62  51  66 SW7       29.97R
MCLEAN 1E        N/A     72  61  68 S12       29.86R
MEMPHIS 1NE      N/A     73  63  70 S3        29.84F
MULESHOE 2SSW    N/A     72  59  64 S14       29.95S
OLTON 6S         N/A     68  59  73 S8        29.95S
PALO DURO SP     N/A     74  60  59 S13       29.93R
PAMPA 2E         N/A     64  64  97 N6        29.92R
PLAINVIEW 1S     N/A     71  62  71 S7        29.94F
SILVERTON 7ESE   N/A     76  60  58 SW20      29.91S
TULIA 2ENE       N/A     71  61  70 S9        29.94S
TURKEY 2WSW      N/A     81  61  49 S15       29.85F
UMBARGER 3NNE    N/A     72  56  58 SW13      29.95S
$$

TXZ033>036-039>041-045>048-021200
TEXAS TECH WEST TEXAS MESONET/SOUTH PLAINS

CITY           SKY/WX    TMP DP  RH WIND       PRES   REMARKS
AIKEN 3WSW       N/A     71  62  71 S10       29.96S
ANDREWS 2NE      N/A     78  56  46 S8        29.94S
ANTON 6SSW       N/A     69  58  69 S6        29.95S
BROWNFIELD 2S    N/A     69  58  68 S8        29.95S
DENVR CTY 7WNW   N/A     65  57  74 SE5       29.96S
GAIL 2ESE        N/A     76  60  58 S8        29.93R
LAMESA 2SE       N/A     73  60  64 SE9       29.94S
LEVELLAND 4S     N/A     68  58  70 S8        29.96S
LUBBOCK 3WNW     N/A     76  59  55 S8        29.95R
MORTON 1ENE      N/A     68  59  72 S8        29.96S
ODONNELL 1N      N/A     74  58  57 S12       29.94S
PLAINS 3N        N/A     69  58  67 SE8       29.97S
RALLS 1SE        N/A     74  59  59 S9        29.95S
REESE CENTER     N/A     71  59  65 S9        29.95S
SEAGRAVES 1SW    N/A     70  59  67 SE5       29.95S
SEMINOLE 2NNE    N/A     74  57  55 S7        29.95R
SLATON 2NE       N/A     72  59  64 S7        29.95R
SNYDER 3E        N/A     76  64  65 S12       29.93R
SUNDOWN 8SW      N/A     66  57  73 S3        29.97R
TAHOKA 3NNE      N/A     73  58  60 S7        29.94R
WOLFFORTH 6SSW   N/A     73  59  61 S7        29.95S
$$

TXZ031-032-036>038-042>044-021200-
TEXAS TECH WEST TEXAS MESONET/ROLLING PLAINS

CITY           SKY/WX    TMP DP  RH WIND       PRES   REMARKS
ASPERMONT 3NE    N/A     80  64  59 S9        29.88S
FLUVANNA 3WNW    N/A     76  60  58 S14       29.94R
GRAHAM 5SSW      N/A     77  58  53 S13       29.94R
GUTHRIE 10WSW    N/A     76  62  59 S12       29.87S
HASKELL 1NW      N/A     79  64  58 S13       29.87S
JAYTON 1SSE      N/A     78  62  57 S8        29.89S
KNOX CITY 3NW    N/A     80  63  57 S12       29.86S
LK A HENRY 1NW   N/A     79  62  55 S15       29.90S
NORTHFIELD 1S    N/A     80  62  54 S9        29.85S
ODELL 4ENE       N/A     79  65  61 S10       29.84R
PADUCAH 10SW     N/A     78  62  56 S15       29.85S
POST 1NE         N/A     77  58  51 S10       29.92S
RRING SPRGS 3N   N/A     79  61  54 S12       29.89S
SEYMOUR 3NW      N/A     79  65  61 S9        29.85R
SPUR 1W          N/A     76  60  57 S8        29.89S
WEINERT 2NNE     N/A     79  66  63 S14       29.86F
WHITE RVR 6NE    N/A     76  60  57 S9        29.92S
$$

TXZ052-054-060>062-072-078-127-140-154-169-021200-
TEXAS TECH WEST TEXAS MESONET/PERMIAN BASIN/
CONCHO VALLEY/BIG COUNTRY/EDWARDS PLATEAU

CITY           SKY/WX    TMP DP  RH WIND       PRES   REMARKS
JUNCTION 1SSW    N/A     74  69  84 S5        29.96R
MERTZON 3NNE     N/A     75  68  78 S12       29.94S
SAN ANGELO 7NW   N/A     76  67  71 S7        29.93R
STRLNG CT 4WSW   N/A     76  68  75 SE8       29.94S
ST LAWRNCE 5SW   N/A     74  63  69 S9        29.95S
SWEETWATR 11SW   N/A     75  67  76 S12       29.95S
WALL 1E          N/A     76  67  73 S10       29.93R
$$

TXZ055-058-074-075-080-082-021200-
TEXAS TECH WEST TEXAS MESONET/FAR WEST/SOUTHWEST MOUNTAINS/TRANS PECOS

CITY           SKY/WX    TMP DP  RH WIND       PRES   REMARKS
PRSMN GAP BBNP   N/A     82  60  47 E7        29.95R
GUADLPE MTN NP   N/A     77  31  18 NW15      30.10S
$$